Location: Am Bach
(47.2149°N, 9.5217°E)
Time: 05:51:27
(UTC+00:00)

Daily predictions for brighter satellites

Satellite Brightness Start Highest point End
(mag) Time Altitude Azimuth Time Altitude Azimuth Time Altitude Azimuth
YAOGAN 11 4.1 00:07:03 73° E 00:07:09 73° ENE 00:11:27 10° N
Thor Agena Rocket 4.3 00:02:21 10° N 00:07:17 43° WNW 00:08:23 38° W
Cosmos 1821 Rocket 4.4 00:03:27 10° NNW 00:09:37 51° W 00:10:54 44° SW
EO 1 Delta rocket 3.9 00:09:20 66° SW 00:09:47 70° W 00:15:26 10° NNW
Meteor 1-15 Rocket 4.2 00:04:33 10° N 00:10:15 87° E 00:11:29 57° SSE
Cosmos 2344 4.3 00:01:47 10° NW 00:11:03 89° SW 00:24:06 10° SE
Cosmos 1300 Rocket 3.5 00:07:32 10° N 00:11:53 86° NNW 00:11:53 86° NNW
ADEOS II 4.4 00:10:15 10° ENE 00:12:53 14° E 00:15:29 10° ESE
SL-16 R/B 3.5 00:09:29 18° SE 00:13:49 43° ENE 00:19:41 10° N
Cosmos 1934 Rocket 3.9 00:09:42 10° N 00:15:53 78° W 00:17:19 54° SSW
Cosmos 2298 Rocket 4.2 00:15:04 55° WSW 00:15:58 64° WNW 00:21:16 10° NNE
Cosmos 1048 Rocket 4.3 00:10:52 10° NNW 00:15:59 49° WSW 00:15:59 49° WSW
Resurs 1-4 Rocket 3.3 00:12:03 10° NNE 00:16:42 31° E 00:18:10 27° SE
Cosmos 1356 Rocket 4.1 00:14:14 10° NNW 00:17:48 46° WNW 00:17:48 46° WNW
Gbstr 26 Del rocket 3.9 00:16:09 10° WNW 00:22:28 53° SW 00:22:28 53° SW
NOSS 2-1 (C) 4.5 00:18:54 10° NW 00:23:38 64° NE 00:30:19 10° SE
USA 281 3.2 00:23:02 34° SSE 00:26:12 87° ENE 00:32:50 10° NNW
CZ-4 R/B 3.7 00:22:42 10° NNE 00:27:38 83° ESE 00:28:15 68° S
SL-24 R/B 4.2 00:29:49 64° WSW 00:30:00 65° WSW 00:34:24 10° NNW
NOSS 2-1 (D) 4.4 00:25:38 10° NW 00:30:25 71° NE 00:37:12 10° SE
Cosmos 1461 4.4 00:29:47 28° W 00:31:17 35° NW 00:35:33 10° NNE
COSMOS 2487 3.3 00:28:48 10° N 00:31:48 47° NE 00:31:48 47° NE
COSMOS 2455 4.2 00:26:38 10° NNW 00:32:15 39° NE 00:37:51 10° ESE
Cosmos 2221 Rocket 3.6 00:37:15 67° WSW 00:37:35 70° W 00:42:10 10° N
Cosmos 1707 4.2 00:42:25 26° ESE 00:43:02 28° E 00:46:20 10° NNE
RESURS DK-1 4.0 00:43:39 10° NW 00:45:45 23° WNW 00:45:45 23° WNW
Okean 2 3.8 00:46:57 50° SE 00:47:30 54° E 00:51:35 10° NNE
Cosmos 44 Rocket 3.3 00:42:16 10° NW 00:47:32 85° SW 00:49:29 39° SSE
Cosmos 2369 Rocket 3.5 00:45:13 21° W 00:47:49 31° NW 00:52:49 10° NNE
Lacrosse 5 2.6 00:50:13 35° SE 00:50:44 36° SE 00:55:23 10° ENE
Cosmos 1733 4.3 00:48:54 10° NNW 00:51:38 33° WNW 00:51:38 33° WNW
Cosmos 1726 2.6 00:49:45 10° N 00:53:24 52° ENE 00:53:55 47° ESE
Cosmos 1766 4.1 00:53:08 10° NNW 00:56:24 38° WNW 00:56:24 38° WNW
Cosmos 1943 Rocket 4.3 00:53:51 10° W 00:57:35 18° NW 01:01:20 10° N
BREEZE-M R/B 4.0 00:58:37 42° S 00:58:37 42° S 01:04:35 10° SE
Helios 1B rocket 2.6 00:55:14 10° NNE 00:59:21 62° ESE 01:00:03 52° SSE
UNK 3.7 01:00:00 42° SSE 01:01:32 80° ENE 01:06:09 10° NNW
Cosmos 1867 4.4 00:59:35 28° W 01:02:00 44° NW 01:07:16 10° NNE
Cosmos 1378 Rocket 3.4 01:01:32 64° SSW 01:02:11 82° W 01:06:32 10° N
Cosmos 1758 4.0 00:58:19 10° N 01:02:20 52° ENE 01:03:47 34° SE
Meteor 1-21 4.4 01:01:50 35° S 01:04:18 69° E 01:10:05 10° NNE
Helios 1A 4.2 01:08:14 27° W 01:08:14 27° W 01:11:20 10° NW
ATLAS CENTAUR R/B 2.0 01:09:09 36° WNW 01:09:44 39° NW 01:13:21 10° NNE
Cosmos 1315 Rocket 3.7 01:07:15 10° N 01:11:06 44° ENE 01:13:10 23° SE
Cosmos 1400 Rocket 2.9 01:07:37 10° NNW 01:11:41 57° W 01:11:54 56° WSW
MINOTAUR 4 R/B 4.2 01:11:35 55° SE 01:12:13 72° ENE 01:15:48 10° N
Okean 1 Rocket 3.0 01:10:17 10° NNW 01:14:40 67° W 01:15:30 53° SSW
Cosmos 1605 Rocket 4.4 01:08:58 10° NNW 01:14:49 45° W 01:16:50 34° SW
AQUA 4.1 01:10:11 10° NNE 01:14:55 62° ESE 01:16:46 35° SSE
SeaSat 1 4.5 01:11:32 10° N 01:15:02 20° NW 01:18:05 12° W
Meteor 2-20 4.4 01:12:44 37° SSW 01:15:16 73° W 01:21:28 10° N
Cosmos 1470 2.7 01:14:58 10° NNW 01:18:51 66° W 01:19:16 61° SW
NPP 3.6 01:13:28 10° NNE 01:18:55 82° ESE 01:21:15 35° S
Cosmos 1459 Rocket 4.0 01:13:50 10° N 01:20:10 79° E 01:24:35 20° SSE
BREEZE-M DEB (TANK) 4.2 01:21:10 36° SW 01:23:20 73° SSE 01:39:04 10° ENE
NOSS 2-1 (E) 4.4 01:22:41 10° NW 01:27:46 58° SW 01:34:54 10° SSE
Cosmos 1674 Rocket 4.3 01:27:05 34° WSW 01:28:00 39° WNW 01:32:12 10° N
Cosmos 2173 Rocket 3.9 01:23:34 10° N 01:29:45 87° W 01:34:01 22° S
CZ-2D R/B 2.2 01:27:29 10° N 01:32:53 65° WNW 01:35:15 33° SW
Cosmos 2227 Rocket 2.9 01:28:10 10° NNW 01:33:43 56° ENE 01:39:16 10° SE
Landsat 4 3.6 01:31:01 10° NNE 01:34:47 86° E 01:35:49 46° S
Cosmos 2297 Rocket 2.4 01:31:44 10° NNW 01:37:26 75° ENE 01:43:06 10° SSE
Cosmos 1025 Rocket 4.3 01:34:39 16° SSE 01:37:37 36° E 01:41:38 10° NNE
Cosmos 1842 4.4 01:37:36 27° W 01:38:05 28° WNW 01:41:27 10° NNW
ISS -2.4 01:36:22 17° WNW 01:38:37 37° N 01:41:49 10° ENE
Tianhe-1 3.2 01:45:16 16° SE 01:45:16 16° SE 01:46:10 10° SE
IDEFIX/ARIANE 42P 3.6 01:38:47 10° NNE 01:43:47 42° E 01:48:10 13° SSE
Cosmos 1802 Rocket 3.9 01:39:18 10° N 01:45:30 84° W 01:50:29 16° S
GP-B 4.1 01:42:50 10° NNE 01:47:06 44° E 01:51:08 11° SSE
Cosmos 1544 Rocket 4.2 01:42:49 10° N 01:47:08 54° ENE 01:51:26 10° SSE
ADEOS Rocket 3.6 01:41:28 10° SSE 01:48:46 84° ENE 01:56:35 10° NNW
Cosmos 2100 Rocket 4.1 01:43:59 10° NNW 01:50:09 59° W 01:54:15 22° SSW
SL-19 R/B 4.4 01:47:13 10° N 01:52:55 63° WNW 01:56:00 26° SW
ADEOS II 2.0 01:47:59 10° NNE 01:53:16 87° WNW 01:56:31 24° SSW
Resurs 1-4 Rocket 2.8 01:51:43 10° N 01:56:37 40° WNW 01:59:15 24° WSW
Cosmos 2251 Rocket 3.4 01:51:44 10° NNW 01:56:59 75° WSW 02:02:12 10° SSE
Meteor 1-29 3.3 01:53:59 10° N 01:57:15 49° WNW 01:58:10 37° WSW
SL-16 R/B 3.1 01:54:33 25° SW 01:57:28 38° W 02:03:16 10° NNW
Cosmos 1455 Rocket 2.9 01:53:42 10° NNW 01:58:02 73° W 02:00:49 21° S
USA 276 2.5 01:57:31 41° S 01:58:03 46° SSE 02:01:07 10° ENE
In-Cosmos 22 4.2 01:55:18 24° SSW 01:58:47 75° WNW 02:04:21 10° N
DELTA 2 DEB (DPAF) 4.1 01:56:55 23° S 01:59:38 62° WSW 02:04:04 10° NNW
Cosmos 2123 Rocket 4.0 01:55:50 18° S 02:00:34 87° E 02:06:48 10° N
IRS-1D 3.6 01:55:55 10° NNE 02:01:16 89° WNW 02:04:59 21° SSW
Meteor 2-11 Rocket 4.5 01:56:06 10° NNW 02:02:14 67° W 02:07:27 15° S
Cosmos 1674 2.6 02:02:22 28° SSW 02:04:18 82° W 02:08:09 10° N
Cosmos 1953 2.2 02:02:02 10° NNW 02:06:00 69° W 02:08:36 20° S
USA 281 4.4 02:09:53 18° WSW 02:11:27 20° W 02:16:03 10° NW
KORONAS-FOTON 3.8 02:10:13 26° SSW 02:12:19 67° W 02:16:15 10° N
Cosmos 2219 3.2 02:07:40 10° NNW 02:13:20 69° WSW 02:19:01 10° SSE
IKONOS-2 4.5 02:10:23 13° S 02:14:06 69° WSW 02:18:23 10° NNW
COSMOS 2455 3.1 02:12:35 10° NW 02:18:20 48° WSW 02:24:03 10° S
Cosmos 1707 4.2 02:17:33 19° WSW 02:18:53 23° WNW 02:22:00 10° NNW
Cosmos 1300 3.6 02:19:06 10° N 02:22:50 48° ENE 02:26:32 10° SSE
CZ-3B R/B 3.7 02:05:32 10° WSW 02:24:01 70° NNW 02:28:20 10° NE
SL-08 R/B 3.6 02:19:59 10° SSE 02:24:41 68° ENE 02:29:20 10° N
Cosmos 1656 3.7 02:21:09 19° SW 02:25:03 70° WNW 02:30:35 10° NNE
Cosmos 1726 4.2 02:26:37 10° WNW 02:28:04 12° W 02:28:21 12° W
Timation 1 Rocket 4.3 02:22:23 10° NNW 02:28:24 84° WSW 02:34:22 10° SSE
IRS-1C 4.3 02:23:09 10° NNE 02:28:32 78° ESE 02:33:52 10° S
Cosmos 1975 Rocket 3.9 02:28:12 19° SW 02:30:40 33° WNW 02:34:38 10° N
Cosmos 304 Rocket 3.8 02:28:04 14° SSW 02:32:08 80° ESE 02:36:58 10° NNE
Lacrosse 5 2.3 02:29:24 15° WSW 02:33:35 57° NNW 02:38:36 10° NE
Helios 1B rocket 4.5 02:31:42 10° NNW 02:34:07 15° WNW 02:36:21 11° W
CZ-4C R/B 3.9 02:31:18 12° S 02:35:10 43° W 02:39:15 10° NNW
Cosmos 1908 3.9 02:32:02 10° NNW 02:35:38 37° W 02:38:27 15° SSW
Cosmos 2263 Rocket 4.0 02:33:11 10° NNW 02:38:23 36° NE 02:43:34 10° ESE
ARIANE 5 R/B 2.7 02:33:15 10° NNE 02:38:28 76° ESE 02:43:34 10° S
Cosmos 1140 Rocket 3.5 02:33:42 10° NNW 02:38:56 89° WSW 02:44:10 10° SSE
Cosmos 2360 4.4 02:35:16 11° SSW 02:40:50 72° ESE 02:46:34 10° NNE
Cosmos 1190 Rocket 4.0 02:38:52 10° NNW 02:44:07 87° ENE 02:49:22 10° SSE
Cosmos 1626 2.4 02:41:35 15° SSW 02:44:27 50° WNW 02:48:04 10° N
TSX-5 4.0 02:43:31 10° NW 02:46:43 40° WSW 02:50:28 10° S
APEX 3.7 02:46:11 10° NNW 02:50:24 72° WSW 02:55:43 10° SSE
Iridium 2 3.8 02:48:48 10° SSW 02:52:32 58° W 02:56:19 10° N
Timation 2 Rocket 4.4 02:48:21 10° NW 02:53:47 37° WSW 02:59:13 10° S
Cosmos 371 Rocket 4.1 02:51:15 13° SW 02:55:15 38° WNW 02:59:50 10° N
Lacrosse 4 Rocket 1.9 02:51:19 10° SSW 02:55:44 64° ESE 03:00:08 10° NE
Cosmos 332 Rocket 4.1 02:53:27 12° SW 02:57:57 54° WNW 03:02:45 10° NNE
SL-14 R/B 3.5 02:55:07 10° SSW 02:58:55 54° WNW 03:02:49 10° N
Cosmos 1697 Rocket 2.8 02:55:38 10° SW 03:01:14 70° WNW 03:06:52 10° NNE
Cosmos 2233 Rocket 4.3 02:58:40 10° NNW 03:04:34 46° W 03:10:23 10° SSW
Cosmos 676 Rocket 4.2 03:01:22 10° NNW 03:06:39 83° ENE 03:11:56 10° SSE
IRS-P3 4.5 03:03:38 10° N 03:08:48 50° WNW 03:13:55 10° SW
Cosmos 1340 2.6 03:06:51 10° SSW 03:10:36 83° WNW 03:14:22 10° N
Cosmos 1980 Rocket 2.4 03:05:44 10° SSW 03:11:24 79° ESE 03:17:06 10° NNE
Cosmos 407 Rocket 3.9 03:06:33 10° NW 03:11:36 43° WSW 03:16:37 10° S
CZ-2D R/B 4.2 03:09:51 10° NNW 03:11:53 12° NW 03:13:54 10° WNW
CZ-2C R/B 2.9 03:06:53 10° NNE 03:11:58 70° ESE 03:17:06 10° S
Cosmos 2285 Rocket 4.1 03:05:52 10° SSW 03:12:15 87° WNW 03:18:45 10° NNE
Meteor 2-10 Rocket 3.9 03:07:15 10° N 03:13:05 84° E 03:18:43 10° SSE
Cosmos 1624 Rocket 4.1 03:09:01 10° SSW 03:14:20 78° WNW 03:19:43 10° NNE
Cosmos 1025 Rocket 4.4 03:11:50 10° SW 03:15:20 23° WNW 03:18:52 10° NNW
ISS -2.9 03:12:32 10° WNW 03:15:51 52° NNE 03:19:10 10° E
USA 129 2.1 03:14:15 10° SSW 03:16:07 27° WSW 03:17:28 10° NW
SL-24 R/B 4.4 03:12:40 10° SSE 03:16:18 62° ENE 03:20:15 10° N
CZ-2D R/B 3.7 03:12:34 10° N 03:16:53 61° WNW 03:21:14 10° SSW
Cosmos 2227 Rocket 3.2 03:12:51 10° NW 03:17:24 26° WSW 03:21:56 10° SSW
CZ-4B R/B 3.9 03:14:10 10° N 03:18:52 46° WNW 03:23:39 10° SW
Tianhe-1 3.1 03:17:45 10° SW 03:19:21 13° SSW 03:20:55 10° S
Cosmos 2369 3.9 03:13:45 10° SW 03:19:27 68° WNW 03:25:12 10° NNE
Cosmos 2297 Rocket 3.5 03:17:01 10° WNW 03:20:49 19° W 03:24:37 10° SW
Cosmos 2278 3.9 03:17:12 10° SSW 03:22:55 84° ESE 03:28:40 10° NNE
